This is the latest recevied weather packets stored in our database for station/object N5RPG. If no packets are shown the sender has not sent any weather packets the latest 10 day(s).
| Time | Temp. | Humidity | Pressure | Rain* | Wind** | Luminosity | Snow |
|---|---|---|---|---|---|---|---|
| 1777986450 | 21.11° C | 86% | 1008.4 hPa | 0 mm | - | 27 W/m² | - |
| 1777986148 | 21.11° C | 86% | 1008.6 hPa | 0 mm | - | 13 W/m² | - |
| 1777985844 | 21.11° C | 86% | 1008.6 hPa | 0 mm | - | 13 W/m² | - |
| 1777985542 | 21.11° C | 87% | 1008.6 hPa | 0 mm | - | 25 W/m² | - |
| 1777985238 | 20.56° C | 87% | 1008.3 hPa | 0 mm | - | 25 W/m² | - |
| 1777984935 | 20.56° C | 87% | 1008.2 hPa | 0 mm | - | 8 W/m² | - |
| 1777984631 | 20.56° C | 87% | 1008.2 hPa | 0 mm | - | 19 W/m² | - |
| 1777984328 | 20.56° C | 87% | 1008.3 hPa | 0 mm | - | 15 W/m² | - |
| 1777984025 | 20.56° C | 87% | 1008.4 hPa | 0 mm | - | 12 W/m² | - |
| 1777983722 | 20.56° C | 87% | 1008.3 hPa | 0 mm | - | 13 W/m² | - |
| 1777983418 | 20.56° C | 87% | 1008.3 hPa | 0 mm | - | 12 W/m² | - |
| 1777983115 | 20.56° C | 87% | 1008.1 hPa | 0 mm | - | 9 W/m² | - |
| 1777982811 | 20.56° C | 87% | 1008.3 hPa | 0 mm | - | 8 W/m² | - |
| 1777982507 | 20.56° C | 87% | 1008.3 hPa | 0 mm | - | 3 W/m² | - |
| 1777982201 | 20° C | 87% | 1008.1 hPa | 0 mm | - | 6 W/m² | - |
| 1777981899 | 20° C | 87% | 1008.1 hPa | 0 mm | - | 5 W/m² | - |
| 1777981596 | 20° C | 87% | 1008 hPa | 0 mm | - | 3 W/m² | - |
| 1777981292 | 20° C | 87% | 1008.1 hPa | 0 mm | - | 2 W/m² | - |
| 1777980989 | 20° C | 87% | 1008.2 hPa | 0 mm | - | 1 W/m² | - |
| 1777980685 | 20° C | 87% | 1008.2 hPa | 0 mm | - | 1 W/m² | - |
| 1777980381 | 20° C | 87% | 1008.2 hPa | 0 mm | - | 0 W/m² | - |
| 1777980081 | 20° C | 87% | 1008 hPa | 0 mm | - | 0 W/m² | - |
| 1777979779 | 20° C | 87% | 1008 hPa | 0 mm | - | 0 W/m² | - |
| 1777979475 | 20° C | 87% | 1008.1 hPa | 0 mm | - | 0 W/m² | - |
| 1777979172 | 20° C | 87% | 1008 hPa | 0 mm | - | 0 W/m² | - |
* Rain latest hour (hover to see other rain measurements)
** Current wind speed in m/s (hover to see current wind gust speed)